Theta_e
303 298 296 299 300 301 299 298 297 299 300 297 298 299 301 298 297 298 298 298 298 297 296 298 300 301 298 299 298 300 301 300 299 297 296 296 295 296 296 296 297 297 297 298
297 294 301 303 301 299 298 296 296 299 297 296 297 297 301 300 297 298 298 297 297 296 296 296 299 299 297 297 297 297 298 299 298 298 297 296 295 295 294 294 294 294 295 294
297 300 301 299 297 296 296 295 296 295 296 296 296 294 297 299 297 296 296 298 297 296 295 295 297 299 298 297 297 298 298 299 299 297 296 295 295 294 292 292 292 293 293 293
297 302 297 296 295 296 293 299 296 295 293 290 296 289 299 298 292 292 293 294 295 295 295 295 295 296 296 295 296 297 297 297 297 298 297 297 293 290 291 291 291 291 292 291
295 294 294 294 295 297 295 298 295 295 293 293 294 289 295 295 291 292 293 294 295 294 294 293 294 293 293 295 295 295 295 295 295 296 295 293 291 292 291 291 291 290 291 291
296 298 297 297 296 297 297 294 293 293 293 286 292 291 293 292 293 295 294 294 294 293 293 292 291 291 291 292 293 293 292 292 293 293 293 292 291 291 290 290 290 290 289 289
294 294 297 297 293 295 296 292 287 284 283 284 291 291 294 298 296 297 293 293 294 293 292 290 288 289 289 290 291 291 290 290 291 292 292 292 291 291 290 290 289 288 288 287
290 289 295 296 297 294 292 294 288 282 284 287 286 285 291 295 297 295 296 295 294 292 291 289 289 289 289 289 289 289 290 289 290 290 290 291 290 290 290 289 289 288 287 287
292 292 296 297 299 299 292 290 296 286 282 285 288 291 295 291 291 292 294 294 293 291 290 289 289 289 288 289 289 289 289 290 289 289 290 289 290 289 289 289 289 288 287 286
297 291 292 292 294 295 294 296 286 288 282 281 288 289 290 288 289 291 292 293 293 292 290 290 289 289 288 289 289 290 290 289 289 289 289 289 289 289 289 288 287 286 286 285
298 293 288 290 289 290 289 289 291 291 290 286 284 288 297 296 294 291 292 293 294 292 290 290 289 289 288 289 289 289 289 289 289 289 289 289 288 288 288 287 286 286 285 284
298 294 288 287 293 295 295 292 292 287 284 287 287 289 293 297 298 296 294 294 295 294 292 290 289 289 288 288 288 288 289 288 289 289 289 288 288 287 287 286 285 285 283 282
297 291 285 288 289 290 288 291 292 292 291 287 285 288 292 293 295 297 295 295 295 294 292 291 290 288 288 288 288 288 288 288 288 288 288 287 287 286 286 285 283 283 281 281
298 292 290 289 292 292 287 289 291 290 286 287 288 291 289 292 293 295 296 296 295 294 292 291 289 289 288 288 287 287 287 288 288 288 287 286 286 286 285 283 282 280 280 279
294 285 290 292 295 293 292 290 290 288 290 288 291 292 295 293 294 295 296 296 295 293 293 291 290 289 289 288 287 287 287 288 288 287 286 286 286 285 283 281 279 278 278 277
292 285 288 286 292 292 289 291 292 290 290 291 292 293 300 300 297 296 296 295 293 293 293 292 290 289 288 287 287 286 287 287 286 286 285 285 283 281 280 278 277 276 275 275
285 285 285 283 289 288 284 287 290 292 292 293 288 294 291 293 292 294 295 294 292 293 292 291 290 290 289 287 287 286 286 286 285 285 284 282 281 278 277 276 275 275 274 274
285 285 286 284 283 276 289 289 290 292 293 294 294 291 293 292 294 295 296 294 292 291 290 290 290 291 289 289 287 286 285 284 283 283 281 280 278 276 275 274 274 273 273 272
288 287 284 280 280 285 288 285 286 288 288 291 291 289 289 285 287 289 290 292 293 292 292 292 291 291 290 288 287 285 283 282 282 280 279 277 276 275 274 273 272 272 272 271
282 283 284 279 278 278 285 283 286 290 283 289 291 290 285 285 284 291 287 288 288 291 291 290 290 290 288 287 286 282 281 281 280 279 278 277 275 273 271 272 271 272 270 270
278 280 280 282 281 284 288 282 283 280 285 287 290 290 285 285 289 286 286 285 287 288 287 288 288 285 286 283 282 281 280 279 280 279 276 275 273 271 271 270 270 269 268 269
281 279 279 282 280 278 282 279 283 287 284 286 288 288 286 285 282 282 283 283 282 282 283 284 282 281 281 281 281 280 279 280 277 276 274 272 270 271 269 267 267 267 267 266
279 285 284 284 284 281 283 283 284 285 286 283 284 285 287 283 282 282 282 282 282 282 282 281 281 279 279 280 281 279 278 276 274 272 270 268 268 269 268 266 267 267 267 267
280 280 282 282 281 280 281 282 282 283 283 284 284 284 284 283 282 281 281 281 280 280 280 280 279 278 276 277 278 279 275 274 271 269 268 267 266 267 266 267 268 268 268 268
281 280 280 279 278 279 280 283 284 283 282 281 281 282 283 283 281 281 281 280 280 280 279 279 279 278 277 276 276 274 273 270 270 269 268 268 268 267 267 267 269 268 269 269
280 279 278 280 282 283 283 284 284 282 281 282 281 279 280 282 281 281 280 280 280 279 278 277 277 277 277 275 274 272 271 270 270 269 268 269 269 267 268 268 267 270 271 271
Wind_Speed
10 10 17 20 18 18 9 11 13 9 3 5 14 16 12 12 11 11 10 8 7 5 3 3 3 6 6 6 7 7 8 8 6 7 8 8 9 9 10 10 14 13 11 11
6 18 18 15 12 16 16 16 16 13 4 5 13 18 15 16 15 13 11 10 8 7 7 5 5 6 5 6 7 6 6 6 6 6 6 7 9 9 10 10 12 13 12 13
19 8 9 14 11 13 16 18 15 15 1 11 13 20 22 12 10 8 9 9 9 10 9 8 7 7 7 7 7 6 7 9 9 11 10 10 10 9 9 10 9 11 12 12
16 20 9 11 17 15 18 14 14 13 7 11 4 12 8 14 14 15 14 13 12 11 9 9 10 9 8 6 7 8 9 10 9 10 9 11 10 11 10 10 9 9 11 13
5 9 12 16 13 15 7 4 7 9 14 16 17 10 8 6 14 18 18 16 15 14 12 12 10 9 9 8 8 8 10 10 10 11 12 10 12 10 9 9 11 10 9 11
15 4 9 9 3 10 12 8 4 3 8 13 17 16 10 9 10 14 17 18 17 16 15 13 11 10 9 8 9 9 11 11 11 11 12 13 13 12 9 9 8 7 7 7
15 14 5 6 7 5 13 10 4 5 6 9 2 15 14 7 7 10 21 21 20 18 16 15 14 13 13 12 10 10 11 12 11 12 13 12 12 12 13 10 7 8 7 7
14 9 21 17 21 12 19 16 8 7 8 4 2 11 7 1 5 2 15 19 19 19 16 16 15 13 12 12 12 12 12 13 12 12 12 11 11 7 7 9 8 7 7 7
10 11 3 4 12 17 10 19 7 2 2 3 9 9 4 6 7 7 16 20 20 20 19 19 17 14 14 13 13 13 13 13 13 12 11 11 10 9 9 9 9 7 7 6
4 7 3 4 3 5 9 11 7 7 6 8 8 12 10 10 15 14 19 20 20 19 19 18 17 16 14 13 12 12 12 13 13 12 11 9 9 8 9 8 9 9 7 7
10 6 5 6 14 20 9 10 9 5 8 4 4 8 7 13 16 21 19 19 20 21 20 18 16 15 14 14 13 13 13 13 12 11 10 10 9 8 8 7 7 7 7 6
14 1 7 12 2 13 14 13 17 7 6 7 5 12 3 3 11 17 18 18 19 20 19 19 17 16 15 15 15 14 13 12 11 11 11 10 10 8 7 8 8 6 6 5
14 8 4 3 5 2 10 17 16 17 2 16 8 8 3 4 7 13 16 17 18 19 20 18 18 18 17 16 15 15 14 13 11 11 11 10 9 8 8 7 7 6 5 4
9 7 13 17 6 11 12 19 22 19 11 18 21 13 7 10 13 14 15 17 18 20 21 20 18 19 18 17 16 16 15 13 13 11 11 10 9 8 8 8 7 5 4 4
8 7 13 24 21 4 6 15 23 27 33 18 31 20 15 16 16 17 17 16 17 19 21 22 21 20 18 18 17 16 16 14 13 12 10 10 9 9 8 7 6 5 3 4
5 4 10 18 19 19 21 13 20 28 30 28 31 26 6 13 14 11 13 14 16 18 20 22 21 19 20 20 18 17 16 15 13 12 11 9 9 7 8 7 6 5 4 3
8 5 4 9 6 13 16 32 24 27 30 23 28 30 4 5 7 8 10 11 15 17 19 20 21 20 17 18 17 18 16 14 13 11 10 11 10 8 7 7 5 5 4 2
7 6 4 5 2 9 11 3 13 30 25 22 21 2 6 7 5 3 3 10 11 9 10 12 13 14 15 15 16 16 15 15 14 12 11 10 9 8 8 7 6 5 4 2
8 8 5 5 9 9 13 4 7 13 16 5 12 8 4 5 3 6 6 4 5 7 7 10 12 14 14 17 18 16 15 14 14 13 12 11 10 9 8 6 7 5 4 2
0 2 6 4 6 8 5 4 4 9 12 6 6 3 5 5 4 9 8 7 6 6 6 7 9 10 13 13 14 15 15 14 14 14 12 11 9 8 8 7 6 5 3 3
4 3 13 13 8 5 3 7 3 6 3 3 9 9 12 8 5 4 6 5 5 6 7 8 8 8 9 10 14 14 14 14 11 12 12 11 9 8 7 7 6 5 4 3
12 10 6 6 6 11 6 5 7 1 3 2 5 8 12 4 6 5 6 7 8 8 8 7 7 7 8 10 12 13 13 10 12 12 11 10 9 7 6 6 5 4 4 5
5 5 5 7 1 1 6 4 3 3 3 4 4 4 7 7 6 8 7 7 6 7 7 5 8 9 8 9 10 12 10 13 12 11 10 10 8 7 7 6 6 5 5 5
4 3 3 4 6 4 7 2 3 4 2 3 2 5 7 6 7 6 6 6 6 6 7 5 8 8 7 6 4 5 11 11 11 11 10 8 8 8 6 5 5 5 5 5
2 8 4 1 1 0 3 7 5 6 2 2 2 4 7 6 5 6 5 6 6 6 5 7 8 8 8 8 7 8 11 12 11 10 9 8 7 7 7 7 5 6 5 6
6 6 6 3 6 2 6 17 13 8 9 7 6 3 2 5 8 6 6 5 5 6 5 6 6 5 6 8 8 8 10 12 12 10 8 7 7 7 6 5 5 11 12 11
Wind_Direction
200 219 221 224 226 248 290 275 262 251 113 263 243 253 227 191 212 216 216 212 205 196 156 134 105 97 85 85 90 91 99 98 96 90 91 86 88 86 76 63 61 59 61 57
185 228 238 247 268 234 239 253 256 263 157 246 267 263 255 190 214 221 218 209 197 176 169 150 134 119 102 101 99 96 102 106 104 98 97 97 95 83 81 73 65 62 59 57
221 224 222 219 224 222 232 242 251 256 112 237 274 266 249 204 214 223 230 210 190 183 167 152 144 130 124 113 114 118 116 108 105 108 109 107 110 104 89 75 66 55 59 60
247 241 201 195 228 217 243 225 249 258 255 264 165 284 272 190 205 208 207 198 188 170 158 146 148 139 123 109 105 108 107 108 118 129 125 112 101 99 92 86 78 67 59 61
216 181 198 213 214 201 244 121 210 243 258 270 251 268 280 160 221 207 205 197 182 174 165 154 145 128 120 125 114 110 110 108 107 104 107 103 103 101 101 96 93 84 68 60
265 12 223 224 87 198 133 115 106 213 255 256 239 223 262 188 228 199 191 192 178 170 163 151 139 138 125 124 121 120 114 105 105 106 107 112 116 118 115 109 99 90 80 65
223 222 184 171 144 156 192 172 216 227 210 252 358 213 255 194 179 197 185 185 177 172 167 159 159 156 148 144 135 130 124 117 114 110 111 110 107 109 108 104 99 98 88 72
209 220 195 196 214 191 199 195 193 226 218 231 95 229 233 339 130 161 178 178 172 173 174 173 168 163 158 152 149 143 136 127 122 117 111 109 107 102 101 105 106 99 89 79
205 234 260 197 214 208 188 221 245 60 191 270 202 242 225 169 181 185 172 175 178 180 178 178 173 172 166 165 159 154 145 139 135 130 124 121 118 118 117 110 105 97 88 84
216 245 191 148 172 236 209 164 180 215 221 230 232 244 234 208 199 185 179 183 181 181 182 181 179 178 172 170 163 161 157 151 143 136 131 125 121 119 115 109 100 96 94 79
193 219 118 154 208 186 173 198 217 232 229 243 262 243 169 200 191 188 188 187 183 183 184 182 180 178 174 174 171 168 165 158 153 144 137 135 133 129 115 111 100 96 93 83
203 112 192 200 99 249 224 213 201 205 191 239 295 260 113 137 176 180 187 187 187 188 185 184 181 179 180 181 177 174 169 166 164 151 147 144 139 143 138 126 121 123 112 105
170 203 180 212 196 190 223 217 228 235 4 229 200 246 127 152 184 178 181 185 187 184 186 186 186 187 185 184 180 177 173 172 167 156 154 150 156 159 149 141 135 129 120 115
186 173 216 227 213 154 201 207 207 209 227 237 232 232 180 202 187 180 182 184 185 188 188 188 191 192 186 183 182 180 175 173 169 165 163 166 167 160 155 144 139 126 126 123
190 227 226 254 271 269 250 220 210 209 226 216 246 233 222 201 196 188 186 181 183 188 191 194 195 193 188 183 183 183 177 175 170 168 170 167 160 156 145 145 138 126 129 103
192 236 220 255 255 251 259 252 239 223 233 236 246 254 223 205 193 192 187 182 191 195 198 198 197 191 191 186 184 180 177 171 164 170 171 159 153 150 148 148 139 146 146 128
171 185 181 250 257 251 252 229 234 237 229 229 232 241 134 103 160 205 206 196 200 201 199 198 196 195 192 187 181 180 172 157 166 166 156 153 155 158 154 152 149 172 161 152
172 186 183 263 120 235 252 312 257 236 243 227 244 97 149 140 175 259 235 203 208 197 194 198 196 195 187 179 179 171 166 162 160 153 152 153 151 156 164 153 179 173 175 172
209 200 210 199 217 309 286 201 196 192 245 242 213 123 118 106 96 254 204 199 194 182 183 190 190 190 177 179 178 171 158 155 153 157 159 160 162 167 155 170 184 174 177 183
220 333 215 147 209 233 343 77 63 80 260 197 173 150 89 91 213 244 147 159 161 154 156 165 169 172 173 179 172 156 159 158 169 163 161 158 159 151 153 178 173 163 171 208
165 200 219 229 241 258 185 138 200 152 273 76 145 166 164 192 206 107 110 118 123 135 138 142 153 156 160 142 151 162 161 174 156 143 144 151 151 149 163 161 168 166 186 219
187 174 197 219 220 242 136 82 184 318 7 107 178 183 183 148 131 137 153 145 138 133 133 131 129 140 142 155 159 161 169 144 137 138 143 147 145 160 165 159 164 179 194 217
218 224 172 211 220 64 202 67 150 210 194 213 176 159 168 161 181 166 154 143 136 135 132 126 148 140 150 164 170 160 147 140 139 142 145 146 151 165 159 168 178 195 201 228
230 174 206 169 177 190 196 190 205 220 219 156 126 144 167 169 149 150 136 140 147 154 161 142 138 153 160 163 130 126 138 139 142 145 150 151 161 169 172 186 194 206 209 217
112 154 154 7 312 178 224 231 210 200 152 122 108 169 193 161 164 158 155 165 168 157 146 158 170 178 175 163 153 140 145 144 153 152 153 164 175 179 177 203 200 209 216 217
185 160 181 183 179 173 184 210 209 180 199 191 173 166 169 170 175 160 177 168 160 165 148 166 181 173 166 165 159 153 153 161 156 157 163 172 172 176 192 196 210 227 232 232